Location: Borowce
(50.8255°N, 19.6209°E)
Time: 17:25:31
(UTC+00:00)

Cosmos 2327 Rocket - Pass Details

Date: 19 May 2025
Orbit: 942 x 1008 km, 83.0° (Epoch: 20 June)

Event Time Altitude Azimuth Distance (km) Brightness Sun altitude
Rises 19:31:19 0° 350° (N) 3,665 8.6 -8.2°
Reaches altitude 10° 19:33:51 10° 352° (N) 2,706 7.8 -8.5°
Maximum altitude 19:40:03 81° 80° (E) 969 4.5 -9.1°
Drops below altitude 10° 19:46:07 10° 168° (SSE) 2,657 6.3 -9.8°
Enters shadow 19:46:34 - 168° (SSE) 2,827 6.4 -9.8°
